Flag for Argentina Weather past 2 weeks in Río Grande, Tierra del Fuego, Argentina

Now
57 °F

Scattered clouds.


Feels Like: 52 °F
Forecast: 45 / 53 °F
Wind: 25 mph from Northwest

Location: Rio Grande B. A.

Current Time: Mar 2, 2015 at 1:46:08 PM

Latest Report: Mar 2, 2015 at 1:00 PM


Visibility: N/A

Pressure: 29.24 "Hg

Humidity: 63%

Dew point: 45 °F

Location of Río GrandeLocation

Historic Weather in Río Grande — Graph

°F

Río Grande temperature yesterday

Maximum temperature yesterday: 72 °F (at 4:00 PM)
Minimum temperature yesterday: 43 °F (at 2:00 AM)
Average temperature yesterday: 53 °F

Past Weeks' High & Low Weather Summary

 TemperatureHumidityPressure
High72 °F (Feb 27, 5:00 PM)100% (Feb 16, 7:00 AM)30.12 "Hg (Feb 16, 7:00 AM)
Low30 °F (Feb 21, 6:00 AM)37% (Feb 17, 5:00 PM)29.12 "Hg (Feb 23, 8:00 AM)
Average52 °F74%29.61 "Hg
* Reported Feb 15 12:00 Noon — Mar 2 12:00 Noon, Río Grande, Weather by CustomWeather, © 2015

Note: Actual official high and low records may vary slightly from our data, if they occured in-between our weather recording intervals... More about our weather records

Advertising

Río Grande weather history for previous 24 hours

 ConditionsComfort  
Time TempWeatherWind HumidityBarometerVisibility
12:00 PM
Mon, Mar 2
57 °FPassing clouds.25 mph63%29.27 "HgN/A
11:00 AM50 °FSunny.22 mph71%29.27 "Hg10 mi
10:00 AM50 °FSunny.22 mph71%29.30 "Hg10 mi
9:00 AM45 °FSunny.18 mph76%29.33 "Hg10 mi
8:00 AM39 °FSunny.14 mph81%29.33 "Hg10 mi
3:00 AM41 °FClear.9 mph81%29.33 "Hg10 mi
11:00 PM
Sun, Mar 1
50 °FPassing clouds.10 mph71%29.33 "HgN/A
10:00 PM52 °FPassing clouds.13 mph82%29.33 "HgN/A
9:00 PM54 °FClear.9 mph77%29.27 "Hg10 mi
8:00 PM55 °FPassing clouds.13 mph77%29.27 "HgN/A
7:00 PM57 °FPartly sunny.22 mph77%29.27 "HgN/A
6:00 PM57 °FBroken clouds.20 mph82%29.27 "HgN/A
5:00 PM61 °FDrizzle. Partly sunny.15 mph77%29.21 "HgN/A
4:00 PM72 °FPassing clouds.22 mph57%29.24 "HgN/A
3:00 PM70 °FPassing clouds.26 mph57%29.24 "HgN/A
2:00 PM68 °FSunny.21 mph60%29.27 "Hg10 mi
1:00 PM63 °FPassing clouds.N/A59%29.27 "HgN/A
Weather by CustomWeather, © 2015

See weather overviewHow to use our weather pages